This demonstration page uses our WeatherBlox Daily Observations layout. Learn more.

Left ArrowRight Arrow

36.17497, -115.13722

Hourly Observations for July 13, 2020

Temp ( °F °C ) Dew Point ( °F °C ) Humidity (%) Winds ( mph kmh ) Pressure ( in mb ) Visibility ( mi km ) Precip ( " mm )
12:53 am 00:53 Clear 101 38.3 39 3.9 12 12 WSW 8 13 29.69 1005 10 16 0.00 0.00
1:53 am 01:53 Clear 99 37.2 40 4.4 13 13 S 6 9 29.68 1005 10 16 0.00 0.00
2:53 am 02:53 Clear 101 38.3 39 3.9 12 12 WSW 15 24 29.66 1005 10 16 0.00 0.00
3:53 am 03:53 Clear 100 37.8 40 4.4 13 13 SW 8 13 29.67 1005 10 16 0.00 0.00
4:53 am 04:53 Clear 96 35.6 40 4.4 14 14 S 8 13 29.69 1005 10 16 0.00 0.00
5:53 am 05:53 Sunny 95 35 40 4.4 15 15 SSW 9 15 29.70 1006 10 16 0.00 0.00
6:53 am 06:53 Sunny 96 35.6 40 4.4 14 14 S 10 17 29.71 1006 10 16 0.00 0.00
7:53 am 07:53 Sunny 101 38.3 40 4.4 12 12 SSW 10 17 29.71 1006 10 16 0.00 0.00
8:53 am 08:53 Sunny 103 39.4 39 3.9 11 11 SSW 9 15 29.72 1006 10 16 0.00 0.00
9:53 am 09:53 Sunny 105 40.6 40 4.4 11 11 SSW 17 28 29.72 1007 N/A 0.00 0.00
10:53 am 10:53 Sunny 107 41.7 40 4.4 10 10 SSW 20 31 29.73 1007 10 16 0.00 0.00
11:53 am 11:53 Sunny 109 42.8 39 3.9 9 9 SSW 22 35 29.72 1006 10 16 0.00 0.00
12:53 pm 12:53 Sunny 111 43.9 39 3.9 9 9 undefined N/A 29.71 1006 10 16 0.00 0.00
1:53 pm 13:53 Sunny 111 43.9 40 4.4 9 9 SSW 23 37 29.70 1006 10 16 0.00 0.00
2:53 pm 14:53 Sunny 111 43.9 39 3.9 9 9 SW 17 28 29.69 1005 10 16 0.00 0.00
3:53 pm 15:53 Sunny 111 43.9 36 2.2 8 8 WSW 22 35 29.67 1005 10 16 0.00 0.00
4:53 pm 16:53 Sunny 110 43.3 36 2.2 8 8 SSW 22 35 29.65 1004 10 16 0.00 0.00
5:53 pm 17:53 Sunny 110 43.3 34 1.1 7 7 SSW 22 35 29.64 1004 10 16 0.00 0.00
6:53 pm 18:53 Sunny 108 42.2 33 0.6 7 7 SSW 23 37 29.63 1004 10 16 0.00 0.00
7:53 pm 19:53 Sunny 106 41.1 33 0.6 8 8 WSW 17 28 29.64 1004 10 16 0.00 0.00
8:53 pm 20:53 Clear 103 39.4 34 1.1 9 9 WSW 15 24 29.65 1004 10 16 0.00 0.00
9:53 pm 21:53 Clear 102 38.9 36 2.2 10 10 SW 10 17 29.67 1005 10 16 0.00 0.00
10:53 pm 22:53 Clear 99 37.2 36 2.2 11 11 SSW 10 17 29.68 1005 10 16 0.00 0.00
11:53 pm 23:53 Clear 98 36.7 34 1.1 11 11 S 14 22 29.70 1006 10 16 0.00 0.00

Powered by AerisWeather